Hourly Data Report for September 16, 2017

All times are specified in Local Standard Time (LST). Add 1 hour to adjust for Daylight Saving Time where and when it is observed.

PETAWAWA AWOS 2
ONTARIO

45°57'00.000" N
77°19'00.000" W
130.10 m
6106396
71625
YWA

Download Data

Hourly Data (September 2017)
Hourly Data Report for September 16, 2017
Temp Definition
°C
Dew Point Temp Definition
°C
Rel Hum Definition
%
Wind Dir Definition
10's deg

Wind Spd Definition
km/h
Visibility Definition
km
Stn Press Definition
kPa
Hmdx Definition


Wind Chill Definition


Weather Definition


TIME
00:00 13.9 13.6 98 25 4 9.7 100.48     LegendNANA
01:00 13.6 13.2 97 27 4 11.3 100.48     LegendNANA
02:00 12.8 12.5 98 25 4 11.3 100.49     LegendNANA
03:00 12.3 12.1 99   0 12.9 100.52     LegendNANA
04:00 11.8 11.6 99   0 11.3 100.52     LegendNANA
05:00 12.2 12.1 99   0 2.4 100.53     LegendNANA
06:00 11.8 11.7 99   0 0.6 100.58     LegendNANA
07:00 13.4 13.4 100   0 5.6 100.62     LegendNANA
08:00 15.1 14.9 99 8 4 1.1 100.65     LegendNANA
09:00 16.6 15.7 94 4 4 3.9 100.67     LegendNANA
10:00 18.9 16.6 86 8 4 14.5 100.67     LegendNANA
11:00 21.0 15.9 73 8 7 14.5 100.63 26   LegendNANA
12:00 22.9 18.1 74 7 7 14.5 100.57 29   LegendNANA
13:00 25.1 18.6 67 10 11 14.5 100.51 32   LegendNANA
14:00 25.6 19.3 68 10 9 14.5 100.46 33   LegendNANA
15:00 25.6 18.9 66 10 9 14.5 100.43 32   LegendNANA
16:00 26.7 18.2 60   0 14.5 100.40 33   LegendNANA
17:00 26.6 18.7 62 20 7 14.5 100.38 33   LegendNANA
18:00 23.5 19.5 78 19 6 14.5 100.36 31   LegendNANA
19:00 19.8 18.4 92 20 7 14.5 100.38     LegendNANA
20:00 20.1 17.8 87   0 14.5 100.41 26   LegendNANA
21:00 18.4 17.7 96   0 14.5 100.41     LegendNANA
22:00 17.6 16.9 96   0 14.5 100.44     LegendNANA
23:00 16.7 16.1 96   0 14.5 100.43     LegendNANA

Notes on Data Quality.

Legend

  • E = Estimated
  • M = Missing
  • NA = Not Available
  • ‡ = Partner data that is not subject to review by the National Climate Archives
Date modified: